Location: Peebles
(55.6412°N, 3.1714°W)
Time: 20:08:43
(UTC+01:00)

Envisat - Pass Details

Date: 03 March 2024
Orbit: 762 x 764 km, 98.3° (Epoch: 21 April)

Event Time Altitude Azimuth Distance (km) Brightness Sun altitude
Rises 04:02:27 0° 15° (NNE) 3,246 6.8 -24.9°
Reaches altitude 10° 04:04:46 10° 15° (NNE) 2,315 6.0 -24.6°
Maximum altitude 04:09:53 87° 290° (WNW) 774 2.9 -24.0°
Enters shadow 04:10:56 58° 202° (SSW) 894 3.0 -23.8°
